This is the latest recevied weather packets stored in our database for station/object NB9X. If no packets are shown the sender has not sent any weather packets the latest 10 day(s).
| Time | Temp. | Humidity | Pressure | Rain* | Wind** | Luminosity | Snow |
|---|---|---|---|---|---|---|---|
| 1777572501 | 27.78° C | 100% | 1011.5 hPa | 0 mm | - | - | - |
| 1777572201 | 28.89° C | 100% | 1011.5 hPa | 0 mm | - | - | - |
| 1777571901 | 29.44° C | 100% | 1011.5 hPa | 0 mm | - | - | - |
| 1777571601 | 29.44° C | 100% | 1011.5 hPa | 0 mm | - | - | - |
| 1777571301 | 31.11° C | 100% | 1011.6 hPa | 0 mm | - | - | - |
| 1777571002 | 28.33° C | 100% | 1011.6 hPa | 0 mm | - | - | - |
| 1777570701 | 30° C | 100% | 1011.5 hPa | 0 mm | - | - | - |
| 1777570401 | 30.56° C | 100% | 1011.7 hPa | 0 mm | - | - | - |
| 1777570101 | 30.56° C | 100% | 1011.8 hPa | 0 mm | - | - | - |
| 1777569801 | 29.44° C | 100% | 1011.9 hPa | 0 mm | - | - | - |
| 1777569501 | 30° C | 100% | 1012 hPa | 0 mm | - | - | - |
| 1777569201 | 28.89° C | 100% | 1012 hPa | 0 mm | - | - | - |
| 1777568901 | 29.44° C | 100% | 1011.9 hPa | 0 mm | - | - | - |
| 1777568601 | 28.89° C | 100% | 1011.9 hPa | 0 mm | - | - | - |
| 1777568301 | 30.56° C | 100% | 1012 hPa | 0 mm | - | - | - |
| 1777568001 | 30° C | 100% | 1011.8 hPa | 0 mm | - | - | - |
| 1777567701 | 30° C | 100% | 1011.8 hPa | 0 mm | - | - | - |
| 1777567401 | 29.44° C | 100% | 1011.8 hPa | 0 mm | - | - | - |
| 1777567101 | 30° C | 100% | 1011.8 hPa | 0 mm | - | - | - |
| 1777566801 | 29.44° C | 100% | 1011.8 hPa | 0 mm | - | - | - |
| 1777566501 | 28.89° C | 100% | 1011.9 hPa | 0 mm | - | - | - |
| 1777566201 | 29.44° C | 100% | 1011.9 hPa | 0 mm | - | - | - |
| 1777565901 | 30° C | 100% | 1011.9 hPa | 0 mm | - | - | - |
| 1777565601 | 30° C | 100% | 1011.9 hPa | 0 mm | - | - | - |
| 1777565301 | 28.89° C | 100% | 1011.9 hPa | 0 mm | - | - | - |
* Rain latest hour (hover to see other rain measurements)
** Current wind speed in m/s (hover to see current wind gust speed)